DELTA 1 R/B, 1983

Orbit data source: Space-Track

DELTA 1 R/B, 1983 is space debris in SSO originally from a launch on Thu, 03 Feb 1966 UTC launched from the Air Force Eastern Test Range (AFETR). Debris objects in space refer to the collection of defunct objects orbiting the Earth. Examples of debris include non-operational satellites, rocket bodies, and fragments generated from explosions, collisions, or faulty payload assembly.

Loading next visibility...
Identifier
1983, 1966-008B
Orbit
SSO
Country
Flag of USUS
Related business
Manufacturer
ABL
Mission
Spacecraft
Bus & Motor
ALTAIR, Unknown motor
Mass
60 kg wet, 60 kg dry
Launch date (UTC)
1966-02-03 (61 years ago)
Launch vehicle
Unknown
Launch site
Air Force Eastern Test Range (AFETR)
Object type
Payload
Rocket body
Debris
Shape & HBR
CYL, 1.1 m
Radar Cross Section
Medium (>0.1 m² and <1 m²)

Expand to show TLE details & history
Last TLE update: 1 day ago

TLE from 1 day ago
0 DELTA 1 R/B
1 01983U 66008B   26263.25838072  .00000512  00000-0  93499-4 0  9991
2 01983  98.0264 179.0481 0063903 151.6709 208.7996 14.68858338186596
Epoch: 2026-09-20T06:12Z
TLE epoch observation values (Epoch: 2026-09-20T06:12:04.094Z)
Latitude
0.00002°
Longitude
86.8759°
Altitude
707.232 km
Speed
7.481 km/s
True Right ascension
11h 56m 11s
True Declination
0° 00' 00"
Sunlit
Object was in daylight at epoch
Visualization orbit readout
Latitude
Unknown
Longitude
Unknown
Altitude
Unknown
Speed
Unknown
Apparent Right ascension
Unknown
Apparent Declination
Unknown
Sunlit
N/A
Visualization observer readout
Local Sidereal Time
02:02:58
Azimuth
Unknown
Elevation
Unknown
Doppler factor
Unknown
Orbital elements
Apogee altitude
706.763 km
Perigee altitude
616.789 km
Semi-major axis
7,039.913 km
Eccentricity
0.00639
Inclination
98.0264°
RAAN
179.0481°
Arg. of periapsis
151.6709°
True anomaly
208.44928°
Mean anomaly
208.7996°
Eccentric anomaly
208.6242°
Mean motion
3.67445 °/min
Orbital period
97.97 mins
BSTAR
0.000093499
Loading maneuver chart data...
Computing Atmospheric mass density...
Loading historical data...
Loading historical data...
Loading historical data...
Loading historical data...
Loading historical data...
Loading historical data...
Loading historical data...
Other satellites on launch #8 in the year 1966 (1966-02-03 UTC)

Documentation

Showing up to 5 results
|